Hourly Weather Rudka

Today, 16 April, Friday

Time Temperature Precipitation Wind Pressure Humidity
00:00 +9°C° 0.1 mm 1 mps 748 mmHg 85%
01:00 +9°C° 0.1 mm 1 mps 748 mmHg 86%
02:00 +9°C° 0 mm 1 mps 748 mmHg 87%
03:00 +9°C° 0.1 mm 1 mps 748 mmHg 87%
04:00 +9°C° 0.1 mm 1 mps 748 mmHg 88%
05:00 +9°C° 0.1 mm 1 mps 748 mmHg 89%
06:00 +8°C° 0.1 mm 2 mps 748 mmHg 88%
07:00 +8°C° 0.1 mm 2 mps 748 mmHg 88%
08:00 +8°C° 0.1 mm 2 mps 748 mmHg 88%
09:00 +9°C° 0.1 mm 3 mps 749 mmHg 83%
10:00 +10°C° 0.1 mm 3 mps 749 mmHg 78%
11:00 +11°C° 0.1 mm 4 mps 749 mmHg 72%
12:00 +10°C° 0.4 mm 5 mps 749 mmHg 73%
13:00 +9°C° 0.4 mm 6 mps 749 mmHg 75%
14:00 +9°C° 0.4 mm 6 mps 749 mmHg 76%
15:00 +8°C° 0.1 mm 6 mps 749 mmHg 77%
16:00 +8°C° 0.1 mm 5 mps 750 mmHg 77%
17:00 +7°C° 0.1 mm 5 mps 750 mmHg 78%
18:00 +6°C° 0 mm 4 mps 750 mmHg 81%
19:00 +5°C° 0 mm 4 mps 750 mmHg 84%
20:00 +5°C° 0 mm 3 mps 751 mmHg 87%
21:00 +4°C° 0 mm 3 mps 751 mmHg 88%
22:00 +4°C° 0 mm 3 mps 751 mmHg 89%
23:00 +5°C° 0 mm 2 mps 751 mmHg 90%

Tomorrow, 17 April, Saturday

Time Temperature Precipitation Wind Pressure Humidity
00:00 +5°C° 0 mm 2 mps 751 mmHg 90%
01:00 +5°C° 0 mm 2 mps 751 mmHg 90%
02:00 +5°C° 0 mm 2 mps 752 mmHg 90%
03:00 +5°C° 0 mm 2 mps 752 mmHg 91%
04:00 +5°C° 0 mm 2 mps 752 mmHg 91%
05:00 +5°C° 0 mm 2 mps 752 mmHg 91%
06:00 +5°C° 0 mm 2 mps 753 mmHg 90%
07:00 +6°C° 0 mm 2 mps 753 mmHg 89%
08:00 +6°C° 0 mm 2 mps 753 mmHg 87%
09:00 +6°C° 0.1 mm 2 mps 754 mmHg 86%
10:00 +5°C° 0.1 mm 3 mps 754 mmHg 84%
11:00 +7°C° 0.1 mm 3 mps 754 mmHg 82%
12:00 +7°C° 0.1 mm 3 mps 754 mmHg 81%
13:00 +7°C° 0.1 mm 3 mps 754 mmHg 81%
14:00 +6°C° 0.1 mm 4 mps 755 mmHg 80%
15:00 +7°C° 0 mm 3 mps 755 mmHg 77%
16:00 +8°C° 0 mm 3 mps 755 mmHg 75%
17:00 +8°C° 0 mm 3 mps 755 mmHg 72%
18:00 +7°C° 0 mm 3 mps 755 mmHg 76%
19:00 +7°C° 0 mm 3 mps 755 mmHg 80%
20:00 +6°C° 0 mm 2 mps 755 mmHg 84%
21:00 +6°C° 0 mm 2 mps 754 mmHg 85%
22:00 +5°C° 0 mm 2 mps 754 mmHg 85%
23:00 +5°C° 0 mm 2 mps 754 mmHg 86%

Day after tomorrow, 18 April, Sunday

Time Temperature Precipitation Wind Pressure Humidity
00:00 +4°C° 0 mm 3 mps 754 mmHg 86%
01:00 +4°C° 0 mm 3 mps 754 mmHg 86%
02:00 +4°C° 0 mm 3 mps 753 mmHg 87%
03:00 +3°C° 0 mm 3 mps 753 mmHg 88%
04:00 +3°C° 0 mm 3 mps 753 mmHg 89%
05:00 +2°C° 0 mm 3 mps 753 mmHg 90%
06:00 +3°C° 0 mm 4 mps 752 mmHg 86%
07:00 +5°C° 0 mm 5 mps 752 mmHg 81%
08:00 +5°C° 0 mm 6 mps 752 mmHg 76%
09:00 +5°C° 0.2 mm 6 mps 752 mmHg 77%
10:00 +7°C° 0.2 mm 6 mps 752 mmHg 77%
11:00 +8°C° 0.2 mm 6 mps 752 mmHg 77%
12:00 +8°C° 0.1 mm 5 mps 752 mmHg 79%
13:00 +8°C° 0.1 mm 5 mps 752 mmHg 80%
14:00 +8°C° 0.1 mm 4 mps 752 mmHg 82%
15:00 +8°C° 0 mm 4 mps 752 mmHg 84%
16:00 +8°C° 0 mm 3 mps 752 mmHg 87%
17:00 +8°C° 0 mm 3 mps 752 mmHg 90%
18:00 +7°C° 0 mm 3 mps 753 mmHg 91%
19:00 +7°C° 0 mm 2 mps 753 mmHg 91%
20:00 +6°C° 0 mm 2 mps 753 mmHg 92%
21:00 +5°C° 0 mm 2 mps 753 mmHg 92%
22:00 +5°C° 0 mm 2 mps 753 mmHg 93%
23:00 +4°C° 0 mm 2 mps 753 mmHg 93%

19 April, Monday

Time Temperature Precipitation Wind Pressure Humidity
00:00 +4°C° 0 mm 2 mps 753 mmHg 93%
01:00 +4°C° 0 mm 2 mps 753 mmHg 93%
02:00 +4°C° 0 mm 2 mps 753 mmHg 94%
03:00 +4°C° 0 mm 2 mps 753 mmHg 93%
04:00 +4°C° 0 mm 2 mps 753 mmHg 93%
05:00 +4°C° 0 mm 2 mps 752 mmHg 93%
06:00 +5°C° 0 mm 2 mps 752 mmHg 88%
07:00 +6°C° 0 mm 2 mps 752 mmHg 84%
08:00 +7°C° 0 mm 2 mps 752 mmHg 79%
09:00 +8°C° 0 mm 2 mps 752 mmHg 74%
10:00 +9°C° 0 mm 2 mps 752 mmHg 69%
11:00 +9°C° 0 mm 2 mps 751 mmHg 63%
12:00 +10°C° 0 mm 2 mps 751 mmHg 61%
13:00 +12°C° 0 mm 1 mps 751 mmHg 59%
14:00 +13°C° 0 mm 1 mps 751 mmHg 57%
15:00 +13°C° 0 mm 2 mps 750 mmHg 57%
16:00 +13°C° 0 mm 2 mps 750 mmHg 58%
17:00 +12°C° 0 mm 3 mps 750 mmHg 59%
18:00 +10°C° 0 mm 3 mps 749 mmHg 65%
19:00 +8°C° 0 mm 4 mps 748 mmHg 70%
20:00 +7°C° 0 mm 4 mps 748 mmHg 76%
21:00 +7°C° 0 mm 5 mps 747 mmHg 75%
22:00 +7°C° 0 mm 5 mps 746 mmHg 75%
23:00 +7°C° 0 mm 6 mps 746 mmHg 74%

20 April, Tuesday

Time Temperature Precipitation Wind Pressure Humidity
00:00 +7°C° 0.1 mm 6 mps 745 mmHg 79%
01:00 +7°C° 0.1 mm 6 mps 744 mmHg 83%
02:00 +7°C° 0.1 mm 6 mps 743 mmHg 87%
03:00 +7°C° 1.1 mm 6 mps 741 mmHg 90%
04:00 +6°C° 1.1 mm 7 mps 740 mmHg 93%
05:00 +8°C° 1.1 mm 7 mps 739 mmHg 96%
06:00 +8°C° 2.1 mm 7 mps 738 mmHg 96%
07:00 +8°C° 2.1 mm 6 mps 737 mmHg 96%
08:00 +8°C° 2.1 mm 6 mps 735 mmHg 96%
09:00 +9°C° 0.8 mm 5 mps 735 mmHg 92%
10:00 +10°C° 0.8 mm 4 mps 735 mmHg 89%
11:00 +11°C° 0.8 mm 4 mps 734 mmHg 86%
12:00 +10°C° 0.3 mm 5 mps 734 mmHg 82%
13:00 +11°C° 0.3 mm 6 mps 734 mmHg 78%
14:00 +11°C° 0.3 mm 7 mps 734 mmHg 74%
15:00 +10°C° 0.2 mm 6 mps 734 mmHg 79%
16:00 +9°C° 0.2 mm 5 mps 734 mmHg 83%
17:00 +7°C° 0.2 mm 4 mps 735 mmHg 88%
18:00 +7°C° 0.5 mm 5 mps 735 mmHg 89%
19:00 +5°C° 0.5 mm 6 mps 736 mmHg 91%
20:00 +4°C° 0.5 mm 6 mps 736 mmHg 92%
21:00 +4°C° 0.3 mm 7 mps 737 mmHg 93%
22:00 +3°C° 0.3 mm 7 mps 738 mmHg 94%
23:00 +3°C° 0.3 mm 7 mps 738 mmHg 95%

21 April, Wednesday

Time Temperature Precipitation Wind Pressure Humidity
00:00 +2°C° 0.1 mm 8 mps 739 mmHg 95%
01:00 +2°C° 0.1 mm 8 mps 739 mmHg 95%
02:00 +2°C° 0.1 mm 8 mps 740 mmHg 95%
03:00 +4°C° 0.2 mm 8 mps 741 mmHg 93%
04:00 +4°C° 0.2 mm 7 mps 742 mmHg 91%
05:00 +4°C° 0.2 mm 7 mps 742 mmHg 89%
06:00 +4°C° 0.1 mm 7 mps 743 mmHg 88%
07:00 +5°C° 0.1 mm 8 mps 744 mmHg 86%
08:00 +5°C° 0.1 mm 8 mps 745 mmHg 85%
09:00 +6°C° 0.1 mm 8 mps 745 mmHg 82%
10:00 +6°C° 0.1 mm 7 mps 746 mmHg 80%
11:00 +8°C° 0.1 mm 7 mps 747 mmHg 78%
12:00 +8°C° 0.2 mm 7 mps 747 mmHg 74%
13:00 +9°C° 0.2 mm 7 mps 748 mmHg 71%
14:00 +9°C° 0.2 mm 6 mps 748 mmHg 68%
15:00 +10°C° 0.1 mm 6 mps 749 mmHg 67%
16:00 +10°C° 0.1 mm 6 mps 749 mmHg 67%
17:00 +10°C° 0.1 mm 5 mps 749 mmHg 67%
18:00 +10°C° 0 mm 4 mps 750 mmHg 72%
19:00 +8°C° 0 mm 4 mps 751 mmHg 77%
20:00 +7°C° 0 mm 3 mps 751 mmHg 82%
21:00 +7°C° 0 mm 3 mps 752 mmHg 83%
22:00 +7°C° 0 mm 3 mps 752 mmHg 84%
23:00 +5°C° 0 mm 3 mps 752 mmHg 86%
Show more